Location: Andershausen
(51.8462°N, 9.8595°E)
Time: 23:19:53
(UTC+00:00)

ARIANE 5 R/B - Pass Details

Date: 18 November 2025
Orbit: 746 x 792 km, 98.8° (Epoch: 04 December)

Event Time Altitude Azimuth Distance (km) Brightness Sun altitude
Rises 16:04:45 0° 145° (SE) 3,182 5.6 -6.2°
Reaches altitude 10° 16:07:05 10° 140° (SE) 2,262 4.8 -6.5°
Maximum altitude 16:11:51 49° 66° (ENE) 970 2.7 -7.2°
Drops below altitude 10° 16:16:40 10° 353° (N) 2,290 4.8 -7.9°
Sets 16:19:02 0° 348° (NNW) 3,224 5.6 -8.2°
